Weather History for Olathe New Century, KS

Change the Weather History Date:

Friday, June 14, 2013

  Actual Average Record
Temperature  
Mean Temperature 76 °F -  
Max Temperature 89 °F 79 °F 93 °F (2004)
Min Temperature 64 °F 60 °F 54 °F (1999)
Cooling Degree Days 11    
Growing Degree Days 26 (Base 50)    
Moisture  
Dew Point 67 °F    
Average Humidity 71    
Maximum Humidity 87    
Minimum Humidity 57    
Precipitation  
Precipitation 0.00 in - - ()
Sea Level Pressure  
Sea Level Pressure 29.95 in    
Wind  
Wind Speed 8 mph (SE)    
Max Wind Speed 17 mph    
Max Gust Speed 23 mph    
Visibility 10 miles    
Events      
Averages and records for this station are not official NWS values.
T = Trace of Precipitation, MM = Missing Value Source: NWS Daily Summary

Daily Weather History Graph

Daily Weather History Graph

Search for Another Location

Airport:

Trip Planner

Search our weather history database for the weather conditions in past years. The results will help you decide how hot, cold, wet, or windy it might be!

Date:

Astronomy

Jun. 14, 2013 Rise Set
Actual Time 5:53 AM CDT 8:46 PM CDT
Civil Twilight 5:21 AM CDT 9:18 PM CDT
Nautical Twilight 4:41 AM CDT 9:58 PM CDT
Astronomical Twilight 3:55 AM CDT 10:44 PM CDT
Moon 11:26 AM CDT (6/14) No Moon Set
Length of Visible Light 15h 56m
Length of Day
14h 52m
Waxing Crescent, 30% of the Moon is Illuminated
Jun 14
Waxing Crescent
Jun 16
First Quarter
Jun 23
Full
Jun 29
Last Quarter
Jul 8
New

Hourly Weather History & Observations

Time (CDT) Temp. Heat Index Dew Point Humidity Pressure Visibility Wind Dir Wind Speed Gust Speed Precip Events Conditions
12:53 AM 64.9 °F - 61.0 °F 87% 30.00 in 10.0 mi Calm Calm - N/A   Clear
1:53 AM 68.0 °F - 62.1 °F 81% 29.99 in 10.0 mi East 4.6 mph - N/A   Clear
2:53 AM 68.0 °F - 62.1 °F 81% 30.01 in 10.0 mi Calm Calm - N/A   Clear
3:53 AM 66.9 °F - 62.1 °F 84% 29.99 in 10.0 mi East 6.9 mph - N/A   Clear
4:53 AM 66.9 °F - 62.1 °F 84% 29.98 in 10.0 mi East 4.6 mph - N/A   Clear
5:53 AM 68.0 °F - 63.0 °F 84% 29.98 in 10.0 mi SE 6.9 mph - N/A   Clear
6:53 AM 68.0 °F - 64.0 °F 87% 30.01 in 10.0 mi East 3.5 mph - N/A   Clear
7:53 AM 70.0 °F - 64.0 °F 81% 30.00 in 10.0 mi SE 10.4 mph - N/A   Partly Cloudy
8:53 AM 72.0 °F - 64.0 °F 76% 30.01 in 10.0 mi SSE 11.5 mph - N/A   Mostly Cloudy
9:53 AM 77.0 °F - 64.0 °F 64% 30.00 in 10.0 mi SSE 16.1 mph 19.6 mph N/A   Clear
10:53 AM 79.0 °F - 64.9 °F 62% 29.98 in 10.0 mi SSE 13.8 mph 19.6 mph N/A   Clear
11:53 AM 81.0 °F 83.0 °F 66.0 °F 60% 29.97 in 10.0 mi SE 15.0 mph - N/A   Clear
12:53 PM 84.9 °F 88.2 °F 68.0 °F 57% 29.95 in 10.0 mi SSE 11.5 mph - N/A   Clear
1:53 PM 84.9 °F 88.2 °F 68.0 °F 57% 29.95 in 10.0 mi SSE 15.0 mph 19.6 mph N/A   Clear
2:53 PM 88.0 °F 93.8 °F 71.1 °F 57% 29.92 in 10.0 mi SE 12.7 mph - N/A   Clear
3:53 PM 88.0 °F 94.7 °F 72.0 °F 59% 29.90 in 10.0 mi SSE 17.3 mph 23.0 mph N/A   Clear
4:53 PM 88.0 °F 95.6 °F 73.0 °F 61% 29.88 in 10.0 mi SSE 12.7 mph 19.6 mph N/A   Partly Cloudy
5:53 PM 88.0 °F 96.5 °F 73.9 °F 63% 29.86 in 10.0 mi SSE 15.0 mph - N/A   Mostly Cloudy
6:53 PM 87.1 °F 94.5 °F 73.0 °F 63% 29.87 in 10.0 mi SE 13.8 mph 19.6 mph N/A   Scattered Clouds
7:53 PM 84.0 °F 90.2 °F 73.0 °F 69% 29.88 in 10.0 mi SE 12.7 mph - N/A   Clear
8:22 PM 82.4 °F 87.2 °F 71.6 °F 70% 29.92 in 10.0 mi SE 16.1 mph - N/A   Partly Cloudy
8:53 PM 82.0 °F 86.7 °F 72.0 °F 71% 29.88 in 10.0 mi SE 12.7 mph - N/A   Clear
9:53 PM 80.1 °F 83.6 °F 71.1 °F 74% 29.91 in 10.0 mi SE 12.7 mph 18.4 mph N/A   Clear
10:53 PM 79.0 °F - 70.0 °F 74% 29.93 in 10.0 mi SE 11.5 mph - N/A   Mostly Cloudy
11:53 PM 77.0 °F - 69.1 °F 76% 29.92 in 10.0 mi SE 11.5 mph - N/A   Clear